Meteo Giornale » Osservazioni meteo Argentina » La Plata Aerodrome
ore: 13:00 - Osservazioni Meteo La Plata Aerodrome
Lat. 34° 58' S Lon. 57° 54' W Alt. 21 metri s.l.m.
15 °C
Nuvoloso
Temp. 24 Ore
10 °C
17 °C
Sud/Sud-Ovest
7.4 Km/h
Dew point 12 °C
Umidità 82 %
Visibilità 10 Km
Il sole sorge alle ore 07:10
Il sole tramonta alle ore 18:32
| Data e Ora | Cielo e Fenomeni | T °C | DP °C | Um. % | Pres. hPa | Vis. km | Vento km/h | |
|---|---|---|---|---|---|---|---|---|
| Oggi h: 13:00 | Nuvoloso | 15 | 12 | 82 | 1021 | 10 | S/SO 7.4 | |
| Oggi h: 12:00 | Coperto | 13 | 11 | 87 | 1021 | 10 | S/SE 14.8 | |
| Oggi h: 10:38 | Coperto | 12 | 12 | 100 | 1021 | 8 | S 9.3 | |
| Oggi h: 10:00 | Pioviggine Foschia | 12 | 12 | 100 | 1021 | 2 | S 11.1 | |
| Oggi h: 09:52 | Foschia | 12 | 12 | 100 | 1020 | 3 | S/SE 14.8 | |
| Oggi h: 09:44 | Coperto | 12 | 12 | 100 | 1020 | 5 | S/SE 14.8 | |
| Oggi h: 09:00 | Nebbia | 12 | 12 | 100 | 1020 | 0.7 | S/SE 11.1 | |
| Oggi h: 08:39 | Nebbia | 11 | 11 | 100 | 1019 | 0.7 | S 11.1 | |
| Oggi h: 08:31 | Foschia | 11 | 11 | 100 | 1019 | 3 | S 11.1 | |
| Oggi h: 07:00 | Coperto | 11 | 11 | 100 | 1019 | 10 | S/SE 14.8 | |
| Oggi h: 06:00 | Coperto | 12 | 12 | 100 | 1019 | 10 | S 13 | |
| Oggi h: 05:00 | Foschia | 11 | 11 | 100 | 1018 | 6 | S 13 | |
| Oggi h: 04:00 | Nebbia | 11 | 11 | 100 | 1018 | 0 | S 14.8 | |
| Oggi h: 03:00 | Nebbia | 11 | 11 | 100 | 1018 | 0.05 | S 11.1 | |
| Oggi h: 02:00 | Nebbia | 10 | 10 | 100 | 1018 | 0.05 | S/SE 9.3 | |
| Oggi h: 01:00 | Nebbia | 11 | 11 | 100 | 1019 | 0.05 | S/SE 11.1 | |
| Oggi h: 00:00 | Nebbia | 11 | 11 | 100 | 1019 | 0.5 | S/SO 11.1 | |
| Ieri h: 23:00 | Foschia | 12 | 12 | 100 | 1018 | 2 | S 11.1 | |
| Ieri h: 22:00 | Coperto | 12 | 12 | 100 | 1018 | 10 | S/SE 13 | |
| Ieri h: 21:00 | Coperto | 12 | 12 | 100 | 1017 | 10 | N 3.7 | |
| Ieri h: 20:00 | Coperto | 13 | 12 | 93 | 1017 | 10 | S/SE 7.4 | |
| Ieri h: 19:00 | Sereno | 14 | 13 | 93 | 1016 | 10 | E 9.3 | |
| Ieri h: 18:00 | Sereno | 16 | 13 | 82 | 1016 | 10 | E/SE 11.1 | |
| Ieri h: 17:00 | Sereno | 17 | 13 | 77 | 1015 | 10 | E/SE 11.1 | |
| Ieri h: 16:00 | Sereno | 17 | 13 | 77 | 1015 | 10 | E 13 | |
| Ieri h: 15:00 | Molto Nuvoloso | 17 | 12 | 72 | 1015 | 10 | SE 11.1 | |



